Terminal Aerodrome Forecast
Issued by NWS Boston, MA

Home | Current Version | Previous Version | Text Only | Print | Product List | Glossary On
Versions: 1 2 3 4 5 6 7 8 9 10 11 12 13 14 15 16 17 18 19 20 21 22 23 24 25 26 27 28 29 30 31 32 33 34 35 36 37 38 39 40 41 42 43 44 45
000
FTUS41 KBOX 202326
TAFBDL
TAF
KBDL 202326Z 2100/2206 17005KT P6SM OVC100
     FM210600 00000KT P6SM OVC050
     FM211500 05004KT P6SM OVC025
     FM220000 02005KT P6SM BKN060
     FM220300 36004KT 5SM BR BKN060=

USA.gov is the U.S. government's official web portal to all federal, state and local government web resources and services.